Simultaneous Nadir Overpasses (SNOs) Predictions

Prediction of SNOs between AQUA and NPP Satellite Orbit:

Table of predicted SNOs for the next 14.0 days since TLE Epoch: 11/9/2013
Index Date (AQUA) Time (AQUA) Lat,Lon (AQUA) SZA (AQUA ) Date (NPP) Time (NPP) Lat,Lon (NPP) SZA (NPP ) Distance(km) Time Diff (sec)
1 11/10/2013 21:50:11 73.48, 85.29 115.81 11/10/2013 21:49:54 73.47, 85.24 115.85 2.02 17
2 11/10/2013 22:39:10 -74.95,-103.63 65.65 11/10/2013 22:40:10 -74.94,-103.69 65.69 1.97 60
3 11/13/2013 13:17:47 -72.00, 30.67 62.06 11/13/2013 13:16:35 -71.99, 30.61 61.96 2.30 72
4 11/13/2013 14:06:32 74.13,-157.41 115.89 11/13/2013 14:06:36 74.13,-157.40 115.88 0.52 4
5 11/13/2013 14:50:18 -79.32, 111.76 81.92 11/13/2013 14:51:31 -78.65, 108.86 82.34 95.95 73
6 11/16/2013 05:34:09 -72.58, 147.58 61.92 11/16/2013 05:33:19 -72.57, 147.52 61.85 2.21 50
7 11/16/2013 06:22:56 74.58, -40.48 116.13 11/16/2013 06:23:22 74.58, -40.44 116.10 1.29 26
8 11/18/2013 21:50:23 -73.47, -94.78 62.13 11/18/2013 21:49:55 -73.48, -94.73 62.12 1.76 28
9 11/18/2013 22:39:22 74.83, 76.01 116.54 11/18/2013 22:40:11 74.83, 76.02 116.49 0.27 49
10 11/21/2013 13:23:28 52.89,-166.04 135.95 11/21/2013 13:22:16 53.04,-167.17 136.58 78.04 72
11 11/21/2013 14:06:52 -73.58, 21.34 61.62 11/21/2013 14:06:48 -73.58, 21.29 61.60 1.64 4




NCC Satellite Simultaneous Nadir Overpasses (SNOs) Prediction Service
